Tracking 20945 objects as of 9-Jul-2020
HD Live streaming from Space Station
objects crossing your sky now

THORAD DELTA 1 DEB

Track THORAD DELTA 1 DEB now!
10-day predictions


NORAD ID: 42608
Int'l Code: 1974-089FZ
Perigee: 1,506.1 km
Apogee: 1,624.2 km
Inclination: 102.2 °
Period: 117.3 minutes
Semi major axis: 7936 km
RCS: Unknown
Launch date: November 15, 1974
Source: United States (US)
Launch site: AIR FORCE WESTERN TEST RANGE (AFWTR)

Note: This is SATELLITE DEBRIS
aabbcc
Your satellite tracking list
Your tracking list is empty




NASA's NSSDC Master Catalog

Two Line Element Set (TLE):
1 42608U 74089FZ  20191.13536853 -.00000028  00000-0  13589-3 0  9995
2 42608 102.2336 158.5045 0074383 126.9076 233.8825 12.27968509297168
Source of the keplerian elements: AFSPC